Home   Weather   Sawai Madhopur   Past weeks

Flag for India Past Weather in Sawai Madhopur, Rajasthan, India — Yesterday and Last 2 Weeks

Now
88 °F

Passing clouds.


Feels Like: 84 °F
Forecast: 75 / 103 °F
Wind: 7 mph from Southeast

Location: Jaipur / Sanganer

Current Time: Apr 26, 2017 at 7:46:16 pm

Latest Report: Apr 26, 2017 at 7:30 pm


Visibility: 3 mi

Pressure: 29.77 "Hg

Humidity: 17%

Dew Point: 37 °F

Location of Sawai MadhopurLocation

Past Weather in Sawai Madhopur — Graph

°F

Sawai Madhopur Temperature Yesterday

Maximum temperature yesterday: 99 °F (at 12:30 pm)
Minimum temperature yesterday: 79 °F (at 6:00 am)
Average temperature yesterday: 86 °F

High & Low Weather Summary for the Past Weeks

 TemperatureHumidityPressure
High109 °F (Apr 16, 4:00 pm)61% (Apr 26, 6:00 am)29.95 "Hg (Apr 26, 6:00 am)
Low72 °F (Apr 26, 5:30 am)3% (Apr 15, 5:30 pm)29.56 "Hg (Apr 20, 4:00 pm)
Average93 °F17%29.74 "Hg
* Reported Apr 11 5:30 pm — Apr 26 6:00 pm, Sawai Madhopur, Weather by CustomWeather, © 2017

Note: Actual official high and low records may vary slightly from our data, if they occured in-between our weather recording intervals... More about our weather records

Advertising

Sawai Madhopur Weather History for the Previous 24 Hours

Scroll right to see more
 ConditionsComfort  
Time TempWeatherWind HumidityBarometerVisibility
6:00 pm
Wed, Apr 26
91 °FScattered clouds.12 mph15%29.74 "Hg3 mi
5:30 pm91 °FScattered clouds.14 mph15%29.74 "Hg3 mi
5:00 pm91 °FScattered clouds.13 mph17%29.74 "Hg3 mi
4:30 pm90 °FScattered clouds.14 mph17%29.74 "Hg3 mi
4:00 pm97 °FScattered clouds.5 mph9%29.74 "Hg3 mi
3:00 pm99 °FScattered clouds.13 mph9%29.74 "Hg3 mi
2:30 pm97 °FScattered clouds.12 mph10%29.77 "Hg3 mi
1:30 pm99 °FScattered clouds.10 mph10%29.77 "Hg3 mi
1:00 pm99 °FScattered clouds.12 mph11%29.80 "Hg3 mi
12:30 pm97 °FHaze.9 mph19%29.80 "Hg3 mi
12:00 pm93 °FHaze.9 mph23%29.83 "Hg3 mi
11:00 am88 °FHaze.8 mph33%29.86 "Hg3 mi
10:30 am86 °FHaze.8 mph33%29.86 "Hg3 mi
10:00 am84 °FHaze.7 mph37%29.86 "Hg2 mi
9:30 am82 °FHaze.7 mph40%29.86 "Hg2 mi
9:00 am81 °FHaze.6 mph42%29.86 "Hg2 mi
8:30 am79 °FHaze.6 mph48%29.83 "Hg2 mi
8:00 am77 °FHaze.6 mph47%29.83 "Hg2 mi
7:30 am75 °FHaze.No wind50%29.80 "Hg2 mi
7:00 am73 °FScattered clouds.No wind61%29.80 "Hg2 mi
6:30 am72 °FScattered clouds.2 mph57%29.80 "Hg2 mi
6:00 am72 °FPassing clouds.No wind61%29.77 "Hg2 mi
5:30 am72 °FPassing clouds.No wind57%29.77 "Hg2 mi
3:30 am75 °FPassing clouds.No wind44%29.77 "Hg2 mi
3:00 am75 °FPassing clouds.1 mph44%29.77 "Hg2 mi
2:30 am77 °FPassing clouds.8 mph42%29.77 "Hg2 mi
2:00 am77 °FPassing clouds.N/A42%29.80 "Hg2 mi
1:30 am79 °FPassing clouds.8 mph42%29.80 "Hg2 mi
1:00 am79 °FPassing clouds.8 mph45%29.83 "Hg2 mi
11:30 pm
Tue, Apr 25
81 °FPassing clouds.6 mph42%29.80 "Hg2 mi
11:00 pm79 °FPassing clouds.1 mph48%29.80 "Hg2 mi
10:30 pm79 °FPassing clouds.3 mph48%29.80 "Hg2 mi
10:00 pm79 °FPassing clouds.1 mph45%29.80 "Hg2 mi
9:30 pm79 °FPassing clouds.7 mph42%29.77 "Hg2 mi
9:00 pm81 °FThunderstorms. Partly cloudy.7 mph39%29.77 "Hg2 mi
8:00 pm82 °FThunderstorms. Partly cloudy.13 mph35%29.74 "Hg2 mi
7:30 pm82 °FThunderstorms. Partly cloudy.8 mph37%29.74 "Hg2 mi
7:00 pm84 °FThunderstorms. Scattered clouds.14 mph33%29.74 "Hg2 mi
Weather by CustomWeather, © 2017

See weather overviewHow to use our weather pages